Regional Weather Roundup
Issued by NWS Northern Indiana

Home | Current Version | Previous Version | Graphics & Text | Print | Product List | Glossary On
Versions: 1 2 3 4 5 6 7 8 9 10 11 12 13 14 15 16 17 18 19 20 21 22 23 24 25 26 27 28 29 30 31 32 33 34 35 36 37 38 39 40 41 42 43 44 45 46 47 48 49 50
002
ASUS43 KIWX 202300
RWRIWX

KIWX WEATHER ROUNDUP
NATIONAL WEATHER SERVICE NORTHERN INDIANA
600 PM EST MON FEB 20 2017

NOTE: "FAIR" INDICATES FEW OR NO CLOUDS BELOW 12,000 FEET WITH NO
SIGNIFICANT WEATHER AND/OR OBSTRUCTIONS TO VISIBILITY.

* THESE STATIONS ARE NOT UNDER NWS QUALITY CONTROL. THEY ALSO MAY NOT
  REPORT WEATHER SUCH AS PRECIPITATION OR FOG.

INZ001>027-210000-
NORTHERN INDIANA

CITY           SKY/WX    TMP DP  RH WIND       PRES   REMARKS
GARY*          MOCLDY    66  41  39 MISG      30.01S
LAPORTE*       CLOUDY    62  42  47 S8        30.05R
KNOX*          PTCLDY    61  18  18 SE9       30.04S
SOUTH BEND     PTCLDY    61  44  53 SE17      30.07S
ELKHART*       CLEAR     63  41  45 SE13      30.07F
GOSHEN         CLOUDY    60  40  47 SE9       30.08S
WARSAW*        PTCLDY    59  41  51 SE9       30.09R
ANGOLA*        CLEAR     57  39  51 SE10      30.12S
FORT WAYNE     CLOUDY    59  41  51 SE8       30.10F
PERU/GRISSOM   CLOUDY    61  44  53 SE8       30.06S

$$
INZ028>050-210000-
CENTRAL INDIANA

CITY           SKY/WX    TMP DP  RH WIND       PRES   REMARKS
LAFAYETTE      CLOUDY    63  46  54 SE7       30.04R
KOKOMO*        CLOUDY    60  45  57 SE10      30.08S
MUNCIE*        CLOUDY    64  41  42 SE10      30.09F
INDIANAPOLIS   CLOUDY    63  45  51 SE12      30.06R

$$
MIZ043>046-050>051-056>058-064>065-071>073-077>080-210000-
SOUTHWEST LOWER MICHIGAN

CITY           SKY/WX    TMP DP  RH WIND       PRES   REMARKS
BATTLE CREEK   CLOUDY    55  36  48 SE9       30.11F
BENTON HARBOR  CLOUDY    62  41  46 SE15G23   30.04S
COLDWATER*     CLOUDY    53  36  51 E8        30.12F
HILLSDALE*     CLOUDY    46  34  61 E12       30.13F
HOLLAND        CLOUDY    59  37  44 SE12      30.06S
GRAND RAPIDS   CLOUDY    55  35  47 SE13      30.08F
KALAMAZOO      CLOUDY    57  36  45 SE9       30.10F
STURGIS*       CLOUDY    56  39  54 E8        30.09F
THREE RIVERS*  FAIR      57  38  47 SE7       30.10S

$$
OHZ001>008-015>018-024>025-210000-
NORTHWEST OHIO

CITY           SKY/WX    TMP DP  RH WIND       PRES   REMARKS
FINDLAY        MOCLDY    57  38  48 NE12      30.14S
TOLEDO EXPRESS CLOUDY    44  31  60 E13       30.18F
TOLEDO METCALF CLOUDY    42  33  70 E12G20    30.21S
LIMA           CLOUDY    58  42  55 E9        30.13F

$$
AND FOR LAKE MICHIGAN COASTAL AND OPEN LAKE BUOY OBSERVATIONS

STATION/POSITION TEMP    WIND        PRES    VSBY  WAVE
                 AIR SEA DIR/SP/G                  HT/PER
                 (F)     (DEG/KT/KT) (MB)    (MI)  (FT/S)
CALUMET HARBOR    65     150/ 11/ 18 1015.3R
MICHIGAN CITY     64     140/ 11/ 14   N/A
BURNS HARBOR      64     140/  9/ 15 1016.9S

$$
&&




USA.gov is the U.S. government's official web portal to all federal, state and local government web resources and services.